This demonstration page uses our WeatherBlox Daily Observations layout. Learn more.

Left ArrowRight Arrow

39.51506, -84.39828

Hourly Observations for March 28, 2015

Temp ( °F °C ) Dew Point ( °F °C ) Humidity (%) Winds ( mph kmh ) Pressure ( in mb ) Visibility ( mi km ) Precip ( " mm )
12:15 am 00:15 Mostly Cloudy 29 -1.5 12 -10.9 49 49 NW 9 15 30.18 1022 10 16 N/A
12:35 am 00:35 Partly Cloudy 29 -1.5 14 -10.1 52 52 NNW 10 17 30.18 1022 10 16 N/A
12:55 am 00:55 Clear 29 -1.5 15 -9.5 55 55 NNW 10 17 30.18 1022 N/A N/A
1:15 am 01:15 Clear 27 -2.8 14 -10.1 58 58 NNW 8 13 30.18 1022 10 16 N/A
1:35 am 01:35 Clear 27 -2.8 14 -10 58 58 NNW 9 15 30.18 1022 10 16 N/A
1:55 am 01:55 Mostly Cloudy 27 -2.8 15 -9.7 59 59 NNW 8 13 30.18 1022 10 16 N/A
2:15 am 02:15 Mostly Cloudy 26 -3.1 15 -9.6 61 61 NNW 8 13 30.18 1022 10 16 N/A
2:35 am 02:35 Partly Cloudy 24 -4.2 13 -10.3 63 63 NNW 8 13 30.18 1022 10 16 N/A
2:55 am 02:55 Clear 24 -4.2 14 -10.1 64 64 NNW 7 11 30.18 1022 10 16 N/A
3:15 am 03:15 Clear 24 -4.2 14 -10 64 64 NNW 8 13 30.18 1022 10 16 N/A
3:35 am 03:35 Clear 24 -4.2 15 -9.7 66 66 NNW 7 11 30.18 1022 10 16 N/A
3:55 am 03:55 Clear 24 -4.4 15 -9.6 67 67 NNW 7 11 30.18 1022 10 16 N/A
4:15 am 04:15 Clear 23 -5 14 -9.8 69 69 NNW 7 11 30.18 1022 10 16 N/A
4:35 am 04:35 Clear 23 -5 15 -9.6 70 70 NNW 6 9 30.18 1022 10 16 N/A
4:55 am 04:55 Clear 23 -5.1 15 -9.7 70 70 NNW 7 11 30.18 1022 10 16 N/A
5:15 am 05:15 Clear 23 -5.2 15 -9.6 72 72 N 7 11 30.21 1023 10 16 N/A
5:35 am 05:35 Clear 22 -5.5 15 -9.5 74 74 N 7 11 30.21 1023 10 16 N/A
5:55 am 05:55 Clear 22 -5.6 15 -9.5 74 74 N 6 9 30.24 1024 10 16 N/A
6:15 am 06:15 Clear 22 -5.6 15 -9.3 75 75 NNE 5 7 30.24 1024 10 16 N/A
6:35 am 06:35 Clear 22 -5.6 15 -9.3 75 75 N 3 6 30.27 1025 10 16 N/A
6:55 am 06:55 Clear 21 -6.1 15 -9.6 77 77 NNE 3 6 30.27 1025 10 16 N/A
7:15 am 07:15 Clear 21 -6.3 15 -9.7 77 77 N 3 6 30.27 1025 10 16 N/A
7:35 am 07:35 Sunny 21 -6.3 15 -9.5 78 78 N 3 6 30.30 1026 10 16 N/A
7:55 am 07:55 Sunny 21 -6.3 15 -9.5 78 78 N 3 6 30.30 1026 10 16 N/A
8:15 am 08:15 Sunny 22 -5.6 16 -9 77 77 N 6 9 30.30 1026 10 16 N/A
8:35 am 08:35 Sunny 24 -4.2 17 -8.4 73 73 N 6 9 30.27 1025 10 16 N/A
8:55 am 08:55 Sunny 27 -2.8 18 -7.9 68 68 NNE 8 13 30.30 1026 10 16 N/A
9:15 am 09:15 Partly Cloudy 27 -2.8 17 -8.5 65 65 ENE 12 19 30.30 1026 10 16 N/A
9:35 am 09:35 Partly Cloudy 27 -2.8 16 -8.8 64 64 NE 8 13 30.30 1026 10 16 N/A
9:55 am 09:55 Mostly Cloudy 28 -2 16 -8.9 60 60 NNE 8 13 30.30 1026 10 16 N/A
10:15 am 10:15 Mostly Cloudy 29 -1.9 15 -9.3 57 57 NNE 7 11 30.33 1027 10 16 N/A
10:35 am 10:35 Mostly Cloudy 29 -1.8 15 -9.4 57 57 ENE 8 13 30.33 1027 10 16 N/A
10:55 am 10:55 Partly Cloudy 29 -1.5 12 -11.2 48 48 NE 6 9 30.33 1027 10 16 N/A
11:15 am 11:15 Partly Cloudy 29 -1.5 10 -12.5 43 43 NNE 5 7 30.33 1027 10 16 N/A
11:35 am 11:35 Partly Cloudy 29 -1.5 8 -13.6 40 40 N N/A 30.33 1027 10 16 N/A
11:55 am 11:55 Partly Cloudy 30 -1 8 -13.5 38 38 NE 6 9 30.33 1027 10 16 N/A
12:15 pm 12:15 Sunny 32 -0.2 7 -13.7 36 36 N 10 17 30.33 1027 10 16 N/A
12:35 pm 12:35 Sunny 32 0.2 7 -13.8 34 34 N 9 15 30.36 1028 10 16 N/A
12:55 pm 12:55 Sunny 33 0.6 7 -14 33 33 NE 3 6 30.33 1027 10 16 N/A
1:15 pm 13:15 Sunny 34 0.9 8 -13.6 33 33 NNE 9 15 30.36 1028 10 16 N/A
1:35 pm 13:35 Sunny 34 1.2 7 -13.8 32 32 NNW 3 6 30.36 1028 10 16 N/A
1:55 pm 13:55 Sunny 34 1.2 8 -13.5 33 33 NNE 8 13 30.36 1028 10 16 N/A
2:15 pm 14:15 Sunny 34 1.2 8 -13.5 33 33 NW 3 6 30.33 1027 10 16 N/A
2:35 pm 14:35 Sunny 35 1.7 8 -13.4 32 32 N 9 15 30.33 1027 10 16 N/A
2:55 pm 14:55 Sunny 35 1.4 7 -13.7 32 32 NNE 9 15 30.33 1027 10 16 N/A
3:15 pm 15:15 Sunny 35 1.5 7 -13.8 31 31 NNE 3 6 30.33 1027 10 16 N/A
3:35 pm 15:35 Sunny 37 2.6 8 -13.4 30 30 NE 7 11 30.33 1027 10 16 N/A
3:55 pm 15:55 Sunny 37 2.6 8 -13.6 29 29 NNE 6 9 30.33 1027 10 16 N/A
4:15 pm 16:15 Sunny 37 2.6 7 -13.7 29 29 N 9 15 30.33 1027 10 16 N/A
4:35 pm 16:35 Sunny 37 2.6 6 -14.4 28 28 NNW 9 15 30.33 1027 10 16 N/A
4:55 pm 16:55 Sunny 37 2.6 6 -14.2 28 28 N N/A 30.33 1027 10 16 N/A
5:15 pm 17:15 Sunny 37 2.6 7 -14.1 28 28 N N/A 30.33 1027 10 16 N/A
5:35 pm 17:35 Sunny 37 2.6 7 -13.7 29 29 NNW 8 13 30.33 1027 10 16 N/A
5:55 pm 17:55 Sunny 37 2.6 7 -14.1 28 28 NNW 7 11 30.33 1027 10 16 N/A
6:15 pm 18:15 Sunny 37 2.6 5 -14.8 27 27 N N/A 30.33 1027 10 16 N/A
6:35 pm 18:35 Sunny 37 2.6 6 -14.3 28 28 NW 6 9 30.33 1027 10 16 N/A
6:55 pm 18:55 Sunny 37 2.6 7 -13.7 29 29 NNW 8 13 30.36 1028 10 16 N/A
7:15 pm 19:15 Sunny 37 2.6 10 -12.1 33 33 N N/A 30.36 1028 10 16 N/A
7:35 pm 19:35 Sunny 34 1.2 9 -12.7 35 35 NNE 5 7 30.36 1028 10 16 N/A
7:55 pm 19:55 Sunny 34 1.2 11 -11.9 37 37 NNE 6 9 30.36 1028 10 16 N/A
8:15 pm 20:15 Clear 34 1.2 13 -10.5 42 42 NNE 5 7 30.36 1028 10 16 N/A
8:35 pm 20:35 Clear 34 1.2 14 -10.2 43 43 NNE 3 6 30.36 1028 10 16 N/A
8:55 pm 20:55 Clear 34 1 16 -8.9 48 48 N 3 6 30.36 1028 10 16 N/A
9:15 pm 21:15 Clear 31 -0.3 15 -9.5 50 50 N 3 6 30.39 1029 10 16 N/A
9:35 pm 21:35 Clear 31 -0.7 14 -9.8 51 51 NNE 3 6 30.39 1029 10 16 N/A
9:55 pm 21:55 Clear 29 -1.5 16 -8.8 58 58 N N/A 30.39 1029 10 16 N/A
10:15 pm 22:15 Clear 29 -1.5 18 -7.8 63 63 N N/A 30.39 1029 10 16 N/A
10:35 pm 22:35 Clear 29 -1.5 18 -8 62 62 N N/A 30.39 1029 10 16 N/A
10:55 pm 22:55 Clear 29 -1.5 18 -8 62 62 N 3 6 30.39 1029 10 16 N/A
11:15 pm 23:15 Clear 28 -2.4 18 -7.6 68 68 N N/A 30.42 1030 10 16 N/A
11:35 pm 23:35 Clear 27 -2.8 19 -7.5 70 70 N N/A 30.42 1030 10 16 N/A
11:55 pm 23:55 Clear 24 -4.2 17 -8.3 73 73 N N/A 30.45 1031 10 16 N/A

Powered by AerisWeather